Year,Month,Day,Hour,Minute,Value (Times are PST for temperature in C)
2015,07,31,00,00,19.70
2015,07,31,00,01,19.70
2015,07,31,00,02,19.70
2015,07,31,00,03,19.70
2015,07,31,00,04,19.70
2015,07,31,00,05,19.70
2015,07,31,00,06,19.60
2015,07,31,00,07,19.60
2015,07,31,00,08,19.60
2015,07,31,00,09,19.60
2015,07,31,00,10,19.60
2015,07,31,00,11,19.60
2015,07,31,00,12,19.60
2015,07,31,00,13,19.60
2015,07,31,00,14,19.60
2015,07,31,00,15,19.60
2015,07,31,00,16,19.60
2015,07,31,00,17,19.50
2015,07,31,00,18,19.50
2015,07,31,00,19,19.50
2015,07,31,00,20,19.50
2015,07,31,00,21,19.40
2015,07,31,00,22,19.40
2015,07,31,00,23,19.40
2015,07,31,00,24,19.40
2015,07,31,00,25,19.30
2015,07,31,00,26,19.30
2015,07,31,00,27,19.30
2015,07,31,00,28,19.20
2015,07,31,00,29,19.20
2015,07,31,00,30,19.10
2015,07,31,00,31,19.10
2015,07,31,00,32,19.10
2015,07,31,00,33,19.00
2015,07,31,00,34,19.00
2015,07,31,00,35,18.90
2015,07,31,00,36,18.90
2015,07,31,00,37,18.80
2015,07,31,00,38,18.80
2015,07,31,00,39,18.70
2015,07,31,00,40,18.70
2015,07,31,00,41,18.60
2015,07,31,00,42,18.50
2015,07,31,00,43,18.50
2015,07,31,00,44,18.40
2015,07,31,00,45,18.30
2015,07,31,00,46,18.20
2015,07,31,00,47,18.20
2015,07,31,00,48,18.10
2015,07,31,00,49,18.00
2015,07,31,00,50,18.00
2015,07,31,00,51,17.90
2015,07,31,00,52,17.80
2015,07,31,00,53,17.80
2015,07,31,00,54,17.80
2015,07,31,00,55,17.70
2015,07,31,00,56,17.70
2015,07,31,00,57,17.70
2015,07,31,00,58,17.60
2015,07,31,00,59,17.60
2015,07,31,01,00,17.60
2015,07,31,01,01,17.60
2015,07,31,01,02,17.60
2015,07,31,01,03,17.60
2015,07,31,01,04,17.60
2015,07,31,01,05,17.60
2015,07,31,01,06,17.60
2015,07,31,01,07,17.50
2015,07,31,01,08,17.50
2015,07,31,01,09,17.50
2015,07,31,01,10,17.50
2015,07,31,01,11,17.50
2015,07,31,01,12,17.50
2015,07,31,01,13,17.50
2015,07,31,01,14,17.40
2015,07,31,01,15,17.40
2015,07,31,01,16,17.40
2015,07,31,01,17,17.40
2015,07,31,01,18,17.40
2015,07,31,01,19,17.30
2015,07,31,01,20,17.30
2015,07,31,01,21,17.30
2015,07,31,01,22,17.30
2015,07,31,01,23,17.20
2015,07,31,01,24,17.20
2015,07,31,01,25,17.20
2015,07,31,01,26,17.20
2015,07,31,01,27,17.10
2015,07,31,01,28,17.10
2015,07,31,01,29,17.10
2015,07,31,01,30,17.00
2015,07,31,01,31,17.00
2015,07,31,01,32,16.90
2015,07,31,01,33,16.90
2015,07,31,01,34,16.90
2015,07,31,01,35,16.90
2015,07,31,01,36,16.80
2015,07,31,01,37,16.80
2015,07,31,01,38,16.80
2015,07,31,01,39,16.70
2015,07,31,01,40,16.70
2015,07,31,01,41,16.70
2015,07,31,01,42,16.60
2015,07,31,01,43,16.60
2015,07,31,01,44,16.60
2015,07,31,01,45,16.50
2015,07,31,01,46,16.40
2015,07,31,01,47,16.40
2015,07,31,01,48,16.30
2015,07,31,01,49,16.30
2015,07,31,01,50,16.20
2015,07,31,01,51,16.20
2015,07,31,01,52,16.20
2015,07,31,01,53,16.10
2015,07,31,01,54,16.10
2015,07,31,01,55,16.00
2015,07,31,01,56,16.00
2015,07,31,01,57,15.90
2015,07,31,01,58,15.90
2015,07,31,01,59,15.80
2015,07,31,02,00,15.80
2015,07,31,02,01,15.80
2015,07,31,02,02,15.70
2015,07,31,02,03,15.70
2015,07,31,02,04,15.70
2015,07,31,02,05,15.60
2015,07,31,02,06,15.60
2015,07,31,02,07,15.60
2015,07,31,02,08,15.50
2015,07,31,02,09,15.50
2015,07,31,02,10,15.40
2015,07,31,02,11,15.40
2015,07,31,02,12,15.40
2015,07,31,02,13,15.30
2015,07,31,02,14,15.30
2015,07,31,02,15,15.30
2015,07,31,02,16,15.30
2015,07,31,02,17,15.20
2015,07,31,02,18,15.20
2015,07,31,02,19,15.20
2015,07,31,02,20,15.20
2015,07,31,02,21,15.10
2015,07,31,02,22,15.10
2015,07,31,02,23,15.10
2015,07,31,02,24,15.10
2015,07,31,02,25,15.10
2015,07,31,02,26,15.10
2015,07,31,02,27,15.00
2015,07,31,02,28,15.00
2015,07,31,02,29,15.00
2015,07,31,02,30,15.00
2015,07,31,02,31,14.90
2015,07,31,02,32,14.90
2015,07,31,02,33,14.90
2015,07,31,02,34,14.90
2015,07,31,02,35,14.80
2015,07,31,02,36,14.80
2015,07,31,02,37,14.80
2015,07,31,02,38,14.80
2015,07,31,02,39,14.80
2015,07,31,02,40,14.80
2015,07,31,02,41,14.70
2015,07,31,02,42,14.70
2015,07,31,02,43,14.70
2015,07,31,02,44,14.70
2015,07,31,02,45,14.70
2015,07,31,02,46,14.60
2015,07,31,02,47,14.60
2015,07,31,02,48,14.60
2015,07,31,02,49,14.60
2015,07,31,02,50,14.60
2015,07,31,02,51,14.60
2015,07,31,02,52,14.60
2015,07,31,02,53,14.60
2015,07,31,02,54,14.50
2015,07,31,02,55,14.50
2015,07,31,02,56,14.50
2015,07,31,02,57,14.50
2015,07,31,02,58,14.50
2015,07,31,02,59,14.50
2015,07,31,03,00,14.50
2015,07,31,03,01,14.40
2015,07,31,03,02,14.40
2015,07,31,03,03,14.40
2015,07,31,03,04,14.40
2015,07,31,03,05,14.40
2015,07,31,03,06,14.40
2015,07,31,03,07,14.40
2015,07,31,03,08,14.40
2015,07,31,03,09,14.40
2015,07,31,03,10,14.30
2015,07,31,03,11,14.40
2015,07,31,03,12,14.30
2015,07,31,03,13,14.30
2015,07,31,03,14,14.30
2015,07,31,03,15,14.30
2015,07,31,03,16,14.30
2015,07,31,03,17,14.30
2015,07,31,03,18,14.30
2015,07,31,03,19,14.30
2015,07,31,03,20,14.30
2015,07,31,03,21,14.30
2015,07,31,03,22,14.20
2015,07,31,03,23,14.20
2015,07,31,03,24,14.20
2015,07,31,03,25,14.20
2015,07,31,03,26,14.20
2015,07,31,03,27,14.10
2015,07,31,03,28,14.10
2015,07,31,03,29,14.10
2015,07,31,03,30,14.10
2015,07,31,03,31,14.10
2015,07,31,03,32,14.00
2015,07,31,03,33,14.00
2015,07,31,03,34,14.00
2015,07,31,03,35,14.00
2015,07,31,03,36,14.00
2015,07,31,03,37,13.90
2015,07,31,03,38,13.90
2015,07,31,03,39,13.90
2015,07,31,03,40,13.90
2015,07,31,03,41,13.90
2015,07,31,03,42,13.90
2015,07,31,03,43,13.90
2015,07,31,03,44,13.90
2015,07,31,03,45,13.90
2015,07,31,03,46,13.90
2015,07,31,03,47,13.80
2015,07,31,03,48,13.80
2015,07,31,03,49,13.80
2015,07,31,03,50,13.80
2015,07,31,03,51,13.80
2015,07,31,03,52,13.80
2015,07,31,03,53,13.80
2015,07,31,03,54,13.70
2015,07,31,03,55,13.70
2015,07,31,03,56,13.70
2015,07,31,03,57,13.70
2015,07,31,03,58,13.70
2015,07,31,03,59,13.70
2015,07,31,04,00,13.70
2015,07,31,04,01,13.70
2015,07,31,04,02,13.60
2015,07,31,04,03,13.60
2015,07,31,04,04,13.60
2015,07,31,04,05,13.60
2015,07,31,04,06,13.60
2015,07,31,04,07,13.60
2015,07,31,04,08,13.60
2015,07,31,04,09,13.60
2015,07,31,04,10,13.60
2015,07,31,04,11,13.60
2015,07,31,04,12,13.50
2015,07,31,04,13,13.50
2015,07,31,04,14,13.50
2015,07,31,04,15,13.50
2015,07,31,04,16,13.40
2015,07,31,04,17,13.40
2015,07,31,04,18,13.40
2015,07,31,04,19,13.40
2015,07,31,04,20,13.40
2015,07,31,04,21,13.40
2015,07,31,04,22,13.40
2015,07,31,04,23,13.40
2015,07,31,04,24,13.40
2015,07,31,04,25,13.40
2015,07,31,04,26,13.40
2015,07,31,04,27,13.40
2015,07,31,04,28,13.40
2015,07,31,04,29,13.40
2015,07,31,04,30,13.40
2015,07,31,04,31,13.40
2015,07,31,04,32,13.40
2015,07,31,04,33,13.40
2015,07,31,04,34,13.30
2015,07,31,04,35,13.30
2015,07,31,04,36,13.30
2015,07,31,04,37,13.40
2015,07,31,04,38,13.40
2015,07,31,04,39,13.40
2015,07,31,04,40,13.40
2015,07,31,04,41,13.40
2015,07,31,04,42,13.40
2015,07,31,04,43,13.40
2015,07,31,04,44,13.40
2015,07,31,04,45,13.40
2015,07,31,04,46,13.40
2015,07,31,04,47,13.40
2015,07,31,04,48,13.40
2015,07,31,04,49,13.40
2015,07,31,04,50,13.40
2015,07,31,04,51,13.40
2015,07,31,04,52,13.40
2015,07,31,04,53,13.40
2015,07,31,04,54,13.40
2015,07,31,04,55,13.40
2015,07,31,04,56,13.40
2015,07,31,04,57,13.40
2015,07,31,04,58,13.40
2015,07,31,04,59,13.30
2015,07,31,05,00,13.30
2015,07,31,05,01,13.30
2015,07,31,05,02,13.30
2015,07,31,05,03,13.30
2015,07,31,05,04,13.30
2015,07,31,05,05,13.30
2015,07,31,05,06,13.30
2015,07,31,05,07,13.30
2015,07,31,05,08,13.30
2015,07,31,05,09,13.30
2015,07,31,05,10,13.30
2015,07,31,05,11,13.30
2015,07,31,05,12,13.30
2015,07,31,05,13,13.30
2015,07,31,05,14,13.30
2015,07,31,05,15,13.30
2015,07,31,05,16,13.30
2015,07,31,05,17,13.30
2015,07,31,05,18,13.30
2015,07,31,05,19,13.30
2015,07,31,05,20,13.30
2015,07,31,05,21,13.30
2015,07,31,05,22,13.30
2015,07,31,05,23,13.30
2015,07,31,05,24,13.30
2015,07,31,05,25,13.30
2015,07,31,05,26,13.20
2015,07,31,05,27,13.20
2015,07,31,05,28,13.20
2015,07,31,05,29,13.20
2015,07,31,05,30,13.20
2015,07,31,05,31,13.20
2015,07,31,05,32,13.20
2015,07,31,05,33,13.20
2015,07,31,05,34,13.20
2015,07,31,05,35,13.20
2015,07,31,05,36,13.20
2015,07,31,05,37,13.20
2015,07,31,05,38,13.20
2015,07,31,05,39,13.10
2015,07,31,05,40,13.10
2015,07,31,05,41,13.10
2015,07,31,05,42,13.10
2015,07,31,05,43,13.10
2015,07,31,05,44,13.10
2015,07,31,05,45,13.10
2015,07,31,05,46,13.10
2015,07,31,05,47,13.00
2015,07,31,05,48,13.00
2015,07,31,05,49,13.00
2015,07,31,05,50,13.00
2015,07,31,05,51,13.00
2015,07,31,05,52,12.90
2015,07,31,05,53,12.90
2015,07,31,05,54,12.90
2015,07,31,05,55,12.90
2015,07,31,05,56,12.90
2015,07,31,05,57,12.90
2015,07,31,05,58,12.90
2015,07,31,05,59,12.80
2015,07,31,06,00,12.80
2015,07,31,06,01,12.80
2015,07,31,06,02,12.80
2015,07,31,06,03,12.80
2015,07,31,06,04,12.80
2015,07,31,06,05,12.80
2015,07,31,06,06,12.80
2015,07,31,06,07,12.80
2015,07,31,06,08,12.80
2015,07,31,06,09,12.80
2015,07,31,06,10,12.80
2015,07,31,06,11,12.80
2015,07,31,06,12,12.80
2015,07,31,06,13,12.80
2015,07,31,06,14,12.80
2015,07,31,06,15,12.80
2015,07,31,06,16,12.80
2015,07,31,06,17,12.80
2015,07,31,06,18,12.80
2015,07,31,06,19,12.80
2015,07,31,06,20,12.80
2015,07,31,06,21,12.90
2015,07,31,06,22,12.90
2015,07,31,06,23,12.90
2015,07,31,06,24,12.90
2015,07,31,06,25,12.90
2015,07,31,06,26,12.90
2015,07,31,06,27,13.00
2015,07,31,06,28,13.00
2015,07,31,06,29,13.00
2015,07,31,06,30,13.10
2015,07,31,06,31,13.10
2015,07,31,06,32,13.10
2015,07,31,06,33,13.10
2015,07,31,06,34,13.10
2015,07,31,06,35,13.10
2015,07,31,06,36,13.10
2015,07,31,06,37,13.10
2015,07,31,06,38,13.20
2015,07,31,06,39,13.20
2015,07,31,06,40,13.20
2015,07,31,06,41,13.20
2015,07,31,06,42,13.30
2015,07,31,06,43,13.30
2015,07,31,06,44,13.40
2015,07,31,06,45,13.40
2015,07,31,06,46,13.50
2015,07,31,06,47,13.50
2015,07,31,06,48,13.60
2015,07,31,06,49,13.60
2015,07,31,06,50,13.60
2015,07,31,06,51,13.60
2015,07,31,06,52,13.70
2015,07,31,06,53,13.70
2015,07,31,06,54,13.70
2015,07,31,06,55,13.70
2015,07,31,06,56,13.70
2015,07,31,06,57,13.80
2015,07,31,06,58,13.80
2015,07,31,06,59,13.80
2015,07,31,07,00,13.80
2015,07,31,07,01,13.80
2015,07,31,07,02,13.80
2015,07,31,07,03,13.90
2015,07,31,07,04,13.90
2015,07,31,07,05,13.90
2015,07,31,07,06,14.00
2015,07,31,07,07,14.00
2015,07,31,07,08,14.10
2015,07,31,07,09,14.10
2015,07,31,07,10,14.20
2015,07,31,07,11,14.20
2015,07,31,07,12,14.20
2015,07,31,07,13,14.30
2015,07,31,07,14,14.30
2015,07,31,07,15,14.30
2015,07,31,07,16,14.40
2015,07,31,07,17,14.40
2015,07,31,07,18,14.50
2015,07,31,07,19,14.50
2015,07,31,07,20,14.60
2015,07,31,07,21,14.70
2015,07,31,07,22,14.70
2015,07,31,07,23,14.80
2015,07,31,07,24,14.90
2015,07,31,07,25,15.00
2015,07,31,07,26,15.10
2015,07,31,07,27,15.30
2015,07,31,07,28,15.40
2015,07,31,07,29,15.50
2015,07,31,07,30,15.60
2015,07,31,07,31,15.80
2015,07,31,07,32,15.90
2015,07,31,07,33,16.00
2015,07,31,07,34,16.10
2015,07,31,07,35,16.20
2015,07,31,07,36,16.30
2015,07,31,07,37,16.40
2015,07,31,07,38,16.50
2015,07,31,07,39,16.60
2015,07,31,07,40,16.70
2015,07,31,07,41,16.80
2015,07,31,07,42,16.80
2015,07,31,07,43,16.90
2015,07,31,07,44,16.90
2015,07,31,07,45,17.00
2015,07,31,07,46,17.00
2015,07,31,07,47,17.10
2015,07,31,07,48,17.10
2015,07,31,07,49,17.10
2015,07,31,07,50,17.10
2015,07,31,07,51,17.10
2015,07,31,07,52,17.10
2015,07,31,07,53,17.10
2015,07,31,07,54,17.10
2015,07,31,07,55,17.10
2015,07,31,07,56,17.10
2015,07,31,07,57,17.20
2015,07,31,07,58,17.20
2015,07,31,07,59,17.20
2015,07,31,08,00,17.20
2015,07,31,08,01,17.20
2015,07,31,08,02,17.30
2015,07,31,08,03,17.30
2015,07,31,08,04,17.30
2015,07,31,08,05,17.40
2015,07,31,08,06,17.40
2015,07,31,08,07,17.40
2015,07,31,08,08,17.50
2015,07,31,08,09,17.50
2015,07,31,08,10,17.50
2015,07,31,08,11,17.60
2015,07,31,08,12,17.70
2015,07,31,08,13,17.70
2015,07,31,08,14,17.70
2015,07,31,08,15,17.80
2015,07,31,08,16,17.90
2015,07,31,08,17,17.90
2015,07,31,08,18,18.00
2015,07,31,08,19,18.10
2015,07,31,08,20,18.10
2015,07,31,08,21,18.20
2015,07,31,08,22,18.30
2015,07,31,08,23,18.30
2015,07,31,08,24,18.30
2015,07,31,08,25,18.40
2015,07,31,08,26,18.40
2015,07,31,08,27,18.40
2015,07,31,08,28,18.40
2015,07,31,08,29,18.40
2015,07,31,08,30,18.50
2015,07,31,08,31,18.50
2015,07,31,08,32,18.50
2015,07,31,08,33,18.50
2015,07,31,08,34,18.60
2015,07,31,08,35,18.60
2015,07,31,08,36,18.70
2015,07,31,08,37,18.70
2015,07,31,08,38,18.80
2015,07,31,08,39,18.90
2015,07,31,08,40,19.00
2015,07,31,08,41,19.00
2015,07,31,08,42,19.10
2015,07,31,08,43,19.20
2015,07,31,08,44,19.20
2015,07,31,08,45,19.30
2015,07,31,08,46,19.40
2015,07,31,08,47,19.40
2015,07,31,08,48,19.50
2015,07,31,08,49,19.50
2015,07,31,08,50,19.60
2015,07,31,08,51,19.60
2015,07,31,08,52,19.70
2015,07,31,08,53,19.70
2015,07,31,08,54,19.70
2015,07,31,08,55,19.80
2015,07,31,08,56,19.80
2015,07,31,08,57,19.80
2015,07,31,08,58,19.90
2015,07,31,08,59,19.90
2015,07,31,09,00,19.90
2015,07,31,09,01,19.90
2015,07,31,09,02,20.00
2015,07,31,09,03,20.00
2015,07,31,09,04,20.00
2015,07,31,09,05,20.00
2015,07,31,09,06,20.00
2015,07,31,09,07,20.00
2015,07,31,09,08,20.10
2015,07,31,09,09,20.10
2015,07,31,09,10,20.10
2015,07,31,09,11,20.20
2015,07,31,09,12,20.20
2015,07,31,09,13,20.30
2015,07,31,09,14,20.40
2015,07,31,09,15,20.40
2015,07,31,09,16,20.40
2015,07,31,09,17,20.50
2015,07,31,09,18,20.50
2015,07,31,09,19,20.60
2015,07,31,09,20,20.60
2015,07,31,09,21,20.70
2015,07,31,09,22,20.70
2015,07,31,09,23,20.80
2015,07,31,09,24,20.80
2015,07,31,09,25,20.80
2015,07,31,09,26,20.90
2015,07,31,09,27,20.90
2015,07,31,09,28,21.00
2015,07,31,09,29,21.00
2015,07,31,09,30,21.10
2015,07,31,09,31,21.20
2015,07,31,09,32,21.30
2015,07,31,09,33,21.30
2015,07,31,09,34,21.40
2015,07,31,09,35,21.50
2015,07,31,09,36,21.60
2015,07,31,09,37,21.60
2015,07,31,09,38,21.60
2015,07,31,09,39,21.60
2015,07,31,09,40,21.60
2015,07,31,09,41,21.60
2015,07,31,09,42,21.60
2015,07,31,09,43,21.50
2015,07,31,09,44,21.50
2015,07,31,09,45,21.40
2015,07,31,09,46,21.30
2015,07,31,09,47,21.30
2015,07,31,09,48,21.20
2015,07,31,09,49,21.10
2015,07,31,09,50,21.10
2015,07,31,09,51,21.00
2015,07,31,09,52,21.00
2015,07,31,09,53,20.90
2015,07,31,09,54,20.90
2015,07,31,09,55,20.90
2015,07,31,09,56,20.80
2015,07,31,09,57,20.70
2015,07,31,09,58,20.60
2015,07,31,09,59,20.50
2015,07,31,10,00,20.40
2015,07,31,10,01,20.30
2015,07,31,10,02,20.20
2015,07,31,10,03,20.20
2015,07,31,10,04,20.10
2015,07,31,10,05,20.10
2015,07,31,10,06,20.10
2015,07,31,10,07,20.10
2015,07,31,10,08,20.10
2015,07,31,10,09,20.10
2015,07,31,10,10,20.10
2015,07,31,10,11,20.20
2015,07,31,10,12,20.20
2015,07,31,10,13,20.20
2015,07,31,10,14,20.30
2015,07,31,10,15,20.30
2015,07,31,10,16,20.40
2015,07,31,10,17,20.40
2015,07,31,10,18,20.40
2015,07,31,10,19,20.50
2015,07,31,10,20,20.50
2015,07,31,10,21,20.60
2015,07,31,10,22,20.60
2015,07,31,10,23,20.70
2015,07,31,10,24,20.70
2015,07,31,10,25,20.80
2015,07,31,10,26,20.90
2015,07,31,10,27,20.90
2015,07,31,10,28,21.00
2015,07,31,10,29,21.00
2015,07,31,10,30,21.00
2015,07,31,10,31,21.00
2015,07,31,10,32,21.10
2015,07,31,10,33,21.10
2015,07,31,10,34,21.20
2015,07,31,10,35,21.20
2015,07,31,10,36,21.30
2015,07,31,10,37,21.30
2015,07,31,10,38,21.30
2015,07,31,10,39,21.40
2015,07,31,10,40,21.40
2015,07,31,10,41,21.50
2015,07,31,10,42,21.50
2015,07,31,10,43,21.60
2015,07,31,10,44,21.60
2015,07,31,10,45,21.60
2015,07,31,10,46,21.70
2015,07,31,10,47,21.70
2015,07,31,10,48,21.70
2015,07,31,10,49,21.70
2015,07,31,10,50,21.70
2015,07,31,10,51,21.70
2015,07,31,10,52,21.70
2015,07,31,10,53,21.70
2015,07,31,10,54,21.80
2015,07,31,10,55,21.80
2015,07,31,10,56,21.80
2015,07,31,10,57,21.80
2015,07,31,10,58,21.80
2015,07,31,10,59,21.80
2015,07,31,11,00,21.90
2015,07,31,11,01,21.90
2015,07,31,11,02,21.90
2015,07,31,11,03,21.90
2015,07,31,11,04,21.90
2015,07,31,11,05,21.90
2015,07,31,11,06,21.90
2015,07,31,11,07,21.90
2015,07,31,11,08,21.90
2015,07,31,11,09,21.90
2015,07,31,11,10,21.90
2015,07,31,11,11,22.00
2015,07,31,11,12,22.10
2015,07,31,11,13,22.10
2015,07,31,11,14,22.20
2015,07,31,11,15,22.20
2015,07,31,11,16,22.20
2015,07,31,11,17,22.30
2015,07,31,11,18,22.30
2015,07,31,11,19,22.30
2015,07,31,11,20,22.40
2015,07,31,11,21,22.40
2015,07,31,11,22,22.40
2015,07,31,11,23,22.50
2015,07,31,11,24,22.50
2015,07,31,11,25,22.50
2015,07,31,11,26,22.60
2015,07,31,11,27,22.60
2015,07,31,11,28,22.60
2015,07,31,11,29,22.60
2015,07,31,11,30,22.70
2015,07,31,11,31,22.80
2015,07,31,11,32,22.80
2015,07,31,11,33,22.90
2015,07,31,11,34,22.90
2015,07,31,11,35,23.00
2015,07,31,11,36,23.00
2015,07,31,11,37,23.10
2015,07,31,11,38,23.20
2015,07,31,11,39,23.30
2015,07,31,11,40,23.30
2015,07,31,11,41,23.30
2015,07,31,11,42,23.40
2015,07,31,11,43,23.40
2015,07,31,11,44,23.50
2015,07,31,11,45,23.60
2015,07,31,11,46,23.60
2015,07,31,11,47,23.60
2015,07,31,11,48,23.70
2015,07,31,11,49,23.70
2015,07,31,11,50,23.70
2015,07,31,11,51,23.70
2015,07,31,11,52,23.80
2015,07,31,11,53,23.80
2015,07,31,11,54,23.80
2015,07,31,11,55,23.80
2015,07,31,11,56,23.80
2015,07,31,11,57,23.90
2015,07,31,11,58,23.90
2015,07,31,11,59,24.00
2015,07,31,12,00,24.10
2015,07,31,12,01,24.10
2015,07,31,12,02,24.20
2015,07,31,12,03,24.20
2015,07,31,12,04,24.30
2015,07,31,12,05,24.30
2015,07,31,12,06,24.20
2015,07,31,12,07,24.20
2015,07,31,12,08,24.20
2015,07,31,12,09,24.10
2015,07,31,12,10,24.10
2015,07,31,12,11,24.10
2015,07,31,12,12,24.00
2015,07,31,12,13,23.90
2015,07,31,12,14,23.80
2015,07,31,12,15,23.70
2015,07,31,12,16,23.70
2015,07,31,12,17,23.60
2015,07,31,12,18,23.60
2015,07,31,12,19,23.50
2015,07,31,12,20,23.50
2015,07,31,12,21,23.40
2015,07,31,12,22,23.30
2015,07,31,12,23,23.30
2015,07,31,12,24,23.20
2015,07,31,12,25,23.20
2015,07,31,12,26,23.20
2015,07,31,12,27,23.20
2015,07,31,12,28,23.20
2015,07,31,12,29,23.20
2015,07,31,12,30,23.20
2015,07,31,12,31,23.20
2015,07,31,12,32,23.20
2015,07,31,12,33,23.20
2015,07,31,12,34,23.30
2015,07,31,12,35,23.30
2015,07,31,12,36,23.40
2015,07,31,12,37,23.50
2015,07,31,12,38,23.50
2015,07,31,12,39,23.60
2015,07,31,12,40,23.70
2015,07,31,12,41,23.70
2015,07,31,12,42,23.70
2015,07,31,12,43,23.80
2015,07,31,12,44,23.80
2015,07,31,12,45,23.80
2015,07,31,12,46,23.80
2015,07,31,12,47,23.80
2015,07,31,12,48,23.80
2015,07,31,12,49,23.80
2015,07,31,12,50,23.80
2015,07,31,12,51,23.80
2015,07,31,12,52,23.80
2015,07,31,12,53,23.80
2015,07,31,12,54,23.80
2015,07,31,12,55,23.80
2015,07,31,12,56,23.80
2015,07,31,12,57,23.90
2015,07,31,12,58,23.90
2015,07,31,12,59,23.80
2015,07,31,13,00,23.80
2015,07,31,13,01,23.60
2015,07,31,13,02,23.60
2015,07,31,13,03,23.50
2015,07,31,13,04,23.50
2015,07,31,13,05,23.50
2015,07,31,13,06,23.40
2015,07,31,13,07,23.40
2015,07,31,13,08,23.30
2015,07,31,13,09,23.30
2015,07,31,13,10,23.20
2015,07,31,13,11,23.10
2015,07,31,13,12,23.00
2015,07,31,13,13,22.80
2015,07,31,13,14,22.70
2015,07,31,13,15,22.60
2015,07,31,13,16,22.60
2015,07,31,13,17,22.60
2015,07,31,13,18,22.60
2015,07,31,13,19,22.70
2015,07,31,13,20,22.70
2015,07,31,13,21,22.70
2015,07,31,13,22,22.80
2015,07,31,13,23,22.80
2015,07,31,13,24,22.90
2015,07,31,13,25,23.00
2015,07,31,13,26,23.10
2015,07,31,13,27,23.10
2015,07,31,13,28,23.00
2015,07,31,13,29,23.00
2015,07,31,13,30,23.00
2015,07,31,13,31,22.90
2015,07,31,13,32,22.90
2015,07,31,13,33,22.90
2015,07,31,13,34,22.90
2015,07,31,13,35,22.90
2015,07,31,13,36,22.90
2015,07,31,13,37,23.00
2015,07,31,13,38,23.00
2015,07,31,13,39,23.00
2015,07,31,13,40,22.90
2015,07,31,13,41,22.90
2015,07,31,13,42,22.90
2015,07,31,13,43,23.00
2015,07,31,13,44,23.00
2015,07,31,13,45,23.10
2015,07,31,13,46,23.00
2015,07,31,13,47,23.00
2015,07,31,13,48,22.90
2015,07,31,13,49,22.80
2015,07,31,13,50,22.80
2015,07,31,13,51,22.80
2015,07,31,13,52,22.80
2015,07,31,13,53,22.90
2015,07,31,13,54,23.00
2015,07,31,13,55,23.10
2015,07,31,13,56,23.10
2015,07,31,13,57,23.20
2015,07,31,13,58,23.20
2015,07,31,13,59,23.20
2015,07,31,14,00,23.20
2015,07,31,14,01,23.10
2015,07,31,14,02,23.00
2015,07,31,14,03,23.00
2015,07,31,14,04,23.00
2015,07,31,14,05,23.00
2015,07,31,14,06,22.90
2015,07,31,14,07,22.80
2015,07,31,14,08,22.60
2015,07,31,14,09,22.40
2015,07,31,14,10,22.30
2015,07,31,14,11,22.20
2015,07,31,14,12,22.20
2015,07,31,14,13,22.20
2015,07,31,14,14,22.30
2015,07,31,14,15,22.30
2015,07,31,14,16,22.40
2015,07,31,14,17,22.50
2015,07,31,14,18,22.60
2015,07,31,14,19,22.70
2015,07,31,14,20,22.80
2015,07,31,14,21,22.90
2015,07,31,14,22,23.00
2015,07,31,14,23,23.10
2015,07,31,14,24,23.20
2015,07,31,14,25,23.20
2015,07,31,14,26,23.30
2015,07,31,14,27,23.40
2015,07,31,14,28,23.40
2015,07,31,14,29,23.40
2015,07,31,14,30,23.40
2015,07,31,14,31,23.40
2015,07,31,14,32,23.30
2015,07,31,14,33,23.20
2015,07,31,14,34,23.10
2015,07,31,14,35,23.00
2015,07,31,14,36,22.90
2015,07,31,14,37,22.80
2015,07,31,14,38,22.80
2015,07,31,14,39,22.70
2015,07,31,14,40,22.70
2015,07,31,14,41,22.60
2015,07,31,14,42,22.50
2015,07,31,14,43,22.50
2015,07,31,14,44,22.40
2015,07,31,14,45,22.30
2015,07,31,14,46,22.30
2015,07,31,14,47,22.30
2015,07,31,14,48,22.20
2015,07,31,14,49,22.30
2015,07,31,14,50,22.20
2015,07,31,14,51,22.20
2015,07,31,14,52,22.10
2015,07,31,14,53,22.00
2015,07,31,14,54,21.90
2015,07,31,14,55,21.90
2015,07,31,14,56,21.80
2015,07,31,14,57,21.80
2015,07,31,14,58,21.80
2015,07,31,14,59,21.90
2015,07,31,15,00,21.90
2015,07,31,15,01,21.90
2015,07,31,15,02,21.90
2015,07,31,15,03,21.80
2015,07,31,15,04,21.80
2015,07,31,15,05,21.80
2015,07,31,15,06,21.80
2015,07,31,15,07,21.80
2015,07,31,15,08,21.90
2015,07,31,15,09,21.90
2015,07,31,15,10,22.00
2015,07,31,15,11,22.10
2015,07,31,15,12,22.10
2015,07,31,15,13,22.20
2015,07,31,15,14,22.30
2015,07,31,15,15,22.30
2015,07,31,15,16,22.30
2015,07,31,15,17,22.30
2015,07,31,15,18,22.30
2015,07,31,15,19,22.30
2015,07,31,15,20,22.30
2015,07,31,15,21,22.30
2015,07,31,15,22,22.30
2015,07,31,15,23,22.30
2015,07,31,15,24,22.40
2015,07,31,15,25,22.40
2015,07,31,15,26,22.40
2015,07,31,15,27,22.40
2015,07,31,15,28,22.40
2015,07,31,15,29,22.40
2015,07,31,15,30,22.40
2015,07,31,15,31,22.40
2015,07,31,15,32,22.40
2015,07,31,15,33,22.40
2015,07,31,15,34,22.30
2015,07,31,15,35,22.20
2015,07,31,15,36,22.20
2015,07,31,15,37,22.10
2015,07,31,15,38,22.10
2015,07,31,15,39,22.10
2015,07,31,15,40,22.10
2015,07,31,15,41,22.10
2015,07,31,15,42,22.10
2015,07,31,15,43,22.20
2015,07,31,15,44,22.10
2015,07,31,15,45,22.10
2015,07,31,15,46,22.20
2015,07,31,15,47,22.20
2015,07,31,15,48,22.20
2015,07,31,15,49,22.20
2015,07,31,15,50,22.20
2015,07,31,15,51,22.20
2015,07,31,15,52,22.20
2015,07,31,15,53,22.20
2015,07,31,15,54,22.20
2015,07,31,15,55,22.30
2015,07,31,15,56,22.20
2015,07,31,15,57,22.20
2015,07,31,15,58,22.30
2015,07,31,15,59,22.30
2015,07,31,16,00,22.30
2015,07,31,16,01,22.30
2015,07,31,16,02,22.30
2015,07,31,16,03,22.40
2015,07,31,16,04,22.40
2015,07,31,16,05,22.50
2015,07,31,16,06,22.50
2015,07,31,16,07,22.50
2015,07,31,16,08,22.60
2015,07,31,16,09,22.70
2015,07,31,16,10,22.80
2015,07,31,16,11,22.80
2015,07,31,16,12,22.90
2015,07,31,16,13,22.90
2015,07,31,16,14,22.90
2015,07,31,16,15,22.90
2015,07,31,16,16,22.90
2015,07,31,16,17,23.00
2015,07,31,16,18,23.10
2015,07,31,16,19,23.10
2015,07,31,16,20,23.20
2015,07,31,16,21,23.20
2015,07,31,16,22,23.30
2015,07,31,16,23,23.30
2015,07,31,16,24,23.30
2015,07,31,16,25,23.30
2015,07,31,16,26,23.30
2015,07,31,16,27,23.30
2015,07,31,16,28,23.20
2015,07,31,16,29,23.00
2015,07,31,16,30,22.80
2015,07,31,16,31,22.80
2015,07,31,16,32,22.70
2015,07,31,16,33,22.60
2015,07,31,16,34,22.50
2015,07,31,16,35,22.40
2015,07,31,16,36,22.40
2015,07,31,16,37,22.40
2015,07,31,16,38,22.30
2015,07,31,16,39,22.30
2015,07,31,16,40,22.20
2015,07,31,16,41,22.10
2015,07,31,16,42,21.90
2015,07,31,16,43,21.80
2015,07,31,16,44,21.70
2015,07,31,16,45,21.70
2015,07,31,16,46,21.60
2015,07,31,16,47,21.50
2015,07,31,16,48,21.40
2015,07,31,16,49,21.30
2015,07,31,16,50,21.20
2015,07,31,16,51,21.10
2015,07,31,16,52,21.00
2015,07,31,16,53,20.90
2015,07,31,16,54,20.80
2015,07,31,16,55,20.70
2015,07,31,16,56,20.40
2015,07,31,16,57,20.30
2015,07,31,16,58,20.20
2015,07,31,16,59,20.10
2015,07,31,17,00,19.90
2015,07,31,17,01,19.80
2015,07,31,17,02,19.60
2015,07,31,17,03,19.40
2015,07,31,17,04,19.20
2015,07,31,17,05,19.00
2015,07,31,17,06,18.80
2015,07,31,17,07,18.70
2015,07,31,17,08,18.70
2015,07,31,17,09,18.60
2015,07,31,17,10,18.50
2015,07,31,17,11,18.50
2015,07,31,17,12,18.40
2015,07,31,17,13,18.40
2015,07,31,17,14,18.30
2015,07,31,17,15,18.30
2015,07,31,17,16,18.30
2015,07,31,17,17,18.20
2015,07,31,17,18,18.20
2015,07,31,17,19,18.30